Location: Montreal
(45.5000°N, 73.5833°W)
Time: 19:10:04
(UTC-05:00)

Vanguard 1 - Pass Details

Date: 25 October 2017
Orbit: 650 x 3834 km, 34.2° (Epoch: 23 November)

Event Time Altitude Azimuth Distance (km) Brightness Sun altitude
Rises 02:51:15 0° 261° (W) 5,444 - -46.4°
Reaches altitude 10° 02:54:17 10° 257° (WSW) 4,786 - -46.0°
Maximum altitude 03:08:45 57° 185° (S) 3,577 - -43.9°
Exits shadow 03:09:48 57° 175° (S) 3,648 12.5 -43.8°
Drops below altitude 10° 03:30:46 10° 115° (ESE) 6,937 14.7 -40.6°
Sets 03:36:20 0° 112° (ESE) 7,934 15.1 -39.8°
